Location: Kellogg
(38.0159°N, 90.0546°W)
Time: 23:53:32
(UTC+00:00)

ACS3 Solar Sail - Pass Details

Date: 19 August 2024
Orbit: 980 x 1030 km, 97.4° (Epoch: 08 September)

Event Time Altitude Azimuth Distance (km) Brightness Sun altitude
Exits shadow 03:56:12 17° 231° (SW) 2,313 3.7 -31.2°
Maximum altitude 03:59:15 24° 269° (W) 1,970 3.6 -31.6°
Drops below altitude 10° 04:04:17 10° 321° (NW) 2,829 5.1 -32.1°
Sets 04:07:22 0° 335° (NNW) 3,794 6.0 -32.5°
